Victoria, TX

3:41 PM CST on December 15, 2019 (GMT -0600)
Victoria Regional

Weather History for KVCT - November, 2019

Change the Weather History Date:

Tuesday, November 12, 2019

  Actual Average Record
Temperature  
Mean Temperature 40 °F 64 °F  
Max Temperature 46 °F 75 °F 93 °F (1925)
Min Temperature 34 °F 53 °F 31 °F (1932)
Degree Days  
Heating Degree Days 25 4  
Month to date heating degree days 83 34  
Since 1 July heating degree days 123 57  
Cooling Degree Days 0 3  
Month to date cooling degree days 25 46  
Year to date cooling degree days 3586 3089  
Moisture  
Dew Point 25 °F    
Average Humidity 62    
Maximum Humidity 86    
Minimum Humidity 39    
Precipitation  
Precipitation 0.03 in 0.12 in 4.85 in (1998)
Month to date precipitation 0.22 1.38  
Year to date precipitation 24.08 37.05  
Snow  
Snow - 0.00 in 0.00 in (2002)
Month to date snowfall 0.0 0.0  
Since 1 July snowfall 0.0 0.0  
Since 1 September snowfall 0.0 0.0  
Snow Depth 0.00 in    
Sea Level Pressure  
Sea Level Pressure 30.44 in    
Wind  
Wind Speed 16 mph ()    
Max Wind Speed 30 mph    
Max Gust Speed 38 mph    
Visibility 10.0 miles    
Events      
T = Trace of Precipitation, MM = Missing Value Source: Averaged Metar Reports

Daily Weather History Graph

Daily Weather History Graph

Search for Another Location

Airport or City:

Astronomy

Nov. 12, 2019 Rise Set
Actual Time 6:48 AM CST 5:35 PM CST
Civil Twilight 6:23 AM CST 5:59 PM CST
Nautical Twilight 5:54 AM CST 6:28 PM CST
Astronomical Twilight 5:26 AM CST 6:56 PM CST
Moon 6:00 PM CST (11/12) 6:44 AM CST (11/12)
Length of Visible Light 11h 36m
Length of Day
10h 46m
Full, 100% of the Moon is Illuminated
Nov 12
Full
Nov 19
Last Quarter
Nov 26
New
Dec 4
First Quarter
Dec 11
Full

Hourly Weather History & Observations

Time (CST) Temp. Windchill Dew Point Humidity Pressure Visibility Wind Dir Wind Speed Gust Speed Precip Events Conditions
12:51 AM 37.0 °F 25.4 °F 33.1 °F 86% 30.32 in 10.0 mi North 25.3 mph 35.7 mph 0.01 in   Overcast
1:51 AM 37.0 °F 25.4 °F 30.9 °F 79% 30.37 in 10.0 mi North 25.3 mph 38.0 mph 0.00 in   Overcast
2:51 AM 36.0 °F 24.7 °F 30.9 °F 82% 30.37 in 10.0 mi North 21.9 mph 29.9 mph 0.02 in   Mostly Cloudy
3:51 AM 36.0 °F 25.6 °F 28.9 °F 76% 30.40 in 10.0 mi North 18.4 mph 32.2 mph 0.00 in   Overcast
4:18 AM 37.0 °F 25.6 °F 28.0 °F 70% 30.42 in 10.0 mi North 24.2 mph 31.1 mph N/A   Overcast
4:51 AM 37.0 °F 27.4 °F 28.0 °F 70% 30.43 in 10.0 mi North 17.3 mph 31.1 mph N/A   Overcast
5:51 AM 36.0 °F 25.0 °F 26.1 °F 67% 30.45 in 10.0 mi North 20.7 mph 31.1 mph N/A   Overcast
6:51 AM 36.0 °F 25.6 °F 26.1 °F 67% 30.47 in 10.0 mi North 18.4 mph 28.8 mph N/A   Overcast
6:57 AM 36.0 °F 25.0 °F 26.1 °F 67% 30.47 in 10.0 mi North 20.7 mph 28.8 mph N/A   Overcast
7:51 AM 36.0 °F 25.0 °F 25.0 °F 64% 30.49 in 10.0 mi North 20.7 mph 29.9 mph N/A   Overcast
8:51 AM 34.0 °F 23.0 °F 25.0 °F 70% 30.52 in 10.0 mi North 18.4 mph 31.1 mph 0.00 in   Mostly Cloudy
9:51 AM 37.0 °F 28.1 °F 24.1 °F 59% 30.53 in 10.0 mi North 15.0 mph 29.9 mph 0.00 in   Scattered Clouds
11:51 AM 39.9 °F 31.4 °F 21.0 °F 47% 30.53 in 10.0 mi NNW 16.1 mph - N/A   Clear
12:51 PM 41.0 °F 32.5 °F 21.0 °F 45% 30.50 in 10.0 mi NNW 17.3 mph 26.5 mph N/A   Clear
1:51 PM 43.0 °F 35.4 °F 19.9 °F 40% 30.46 in 10.0 mi North 16.1 mph 27.6 mph N/A   Clear
2:51 PM 45.0 °F 37.6 °F 21.0 °F 39% 30.44 in 10.0 mi NNW 17.3 mph - N/A   Scattered Clouds
3:51 PM 44.1 °F 37.1 °F 21.0 °F 40% 30.43 in 10.0 mi North 15.0 mph 21.9 mph N/A   Clear
4:51 PM 42.1 °F 34.9 °F 19.9 °F 41% 30.43 in 10.0 mi North 13.8 mph - N/A   Overcast
5:51 PM 39.9 °F 33.4 °F 21.9 °F 49% 30.43 in 10.0 mi North 10.4 mph - N/A   Clear
6:51 PM 37.9 °F 32.7 °F 24.1 °F 57% 30.43 in 10.0 mi North 6.9 mph - N/A   Clear
7:51 PM 36.0 °F 32.1 °F 27.0 °F 70% 30.43 in 10.0 mi NNW 4.6 mph - N/A   Clear
8:51 PM 37.0 °F 31.6 °F 26.1 °F 65% 30.41 in 10.0 mi North 6.9 mph - N/A   Clear
9:51 PM 35.1 °F 30.1 °F 27.0 °F 72% 30.43 in 10.0 mi NNW 5.8 mph - N/A   Clear
10:51 PM 34.0 °F 27.2 °F 25.0 °F 70% 30.43 in 10.0 mi North 8.1 mph - N/A   Clear
11:51 PM 34.0 °F 27.2 °F 25.0 °F 70% 30.44 in 10.0 mi North 8.1 mph - N/A   Clear